Flood From: 24-02-2018 06:00 Until: 25-02-2018 06:00 warning for: Flood Level: Yellow info button

Although rather usual in this region, locally or potentially dangerous phenomena are expected. (such as local winds, summer thunderstorms, rising streams or high waves) Be aware and pay attention to the latest weather updates, especially if you carry out activities exposed to weather or close to a stream or shoreline. 


Meteo18 Weather Cam more information Meteo18 Weather Cam


Thunder radar more information blitzortung!


Rain radar more information rain snow radar


Visit our other weather sites:

Template documentation
and downloads

And another site



Weather Underground History page Text

Daily Summary for June 22, 2017 Units:  Both    English   Metric
« Previous Day
Next Day »
Daily Weekly Monthly Yearly Custom
  High: Low: Average:
Temperature: TemperatureC °F /  -17.8 °C 19.1 °F /  -7.2 °C 27.4 °F /  -2.6 °C
Dew Point: DewpointC °F /  -17.8 °C 9.1 °F /  -12.7 °C 15.9 °F /  -8.9 °C
Humidity: Humidity % 22 % 54 %
Wind Speed: WindSpeedKMH mph /  0 km/h - 5.2 mph /  8.4 km/h
Wind Gust: WindSpeedGustKMH mph /  0 km/h - -
Wind:- - WSW
Pressure: PressurehPa in /  0 hPa 1015.1 in /  34371.3 hPa -
Precipitation: 0.0 in /  0 mm    
Historical Graphs
 
 
Tabular Data for June 22, 2017
Time Temperature Dew Point Pressure Wind Wind Speed Wind Gust Humidity Rainfall Rate (Hourly)
TemperatureC °F /  -17.8 °C DewpointC °F /  -17.8 °C PressurehPa in /  0 hPa Calm     Humidity % HourlyPrecipMM in /  0 mm
00:02 25.6 °F /  -3.6 °C 20.2 °F /  -6.6 °C 1015.8 in /  34395 hPa Calm     72 % 0.0 in /  0 mm
00:07 25.5 °F /  -3.6 °C 20.1 °F /  -6.6 °C 1015.8 in /  34395 hPa Calm     72 % 0.0 in /  0 mm
00:12 25.3 °F /  -3.7 °C 20.1 °F /  -6.6 °C 1015.8 in /  34395 hPa Calm     73 % 0.0 in /  0 mm
00:17 25.1 °F /  -3.8 °C 20.1 °F /  -6.6 °C 1015.8 in /  34395 hPa Calm     74 % 0.0 in /  0 mm
00:22 25.1 °F /  -3.8 °C 20.1 °F /  -6.6 °C 1015.8 in /  34395 hPa Calm     74 % 0.0 in /  0 mm
00:27 24.9 °F /  -3.9 °C 19.9 °F /  -6.7 °C 1015.8 in /  34395 hPa Calm     74 % 0.0 in /  0 mm
00:32 24.8 °F /  -4 °C 20.1 °F /  -6.6 °C 1015.8 in /  34395 hPa Calm     75 % 0.0 in /  0 mm
00:37 24.7 °F /  -4.1 °C 20.2 °F /  -6.6 °C 1015.8 in /  34395 hPa Calm     76 % 0.0 in /  0 mm
00:42 24.7 °F /  -4.1 °C 20.0 °F /  -6.7 °C 1015.8 in /  34395 hPa Calm     75 % 0.0 in /  0 mm
00:52 24.5 °F /  -4.2 °C 20.0 °F /  -6.7 °C 1015.8 in /  34395 hPa Calm     76 % 0.0 in /  0 mm
01:02 24.8 °F /  -4 °C 20.1 °F /  -6.6 °C 1015.8 in /  34395 hPa Calm     75 % 0.0 in /  0 mm
01:12 24.4 °F /  -4.2 °C 19.9 °F /  -6.7 °C 1015.8 in /  34395 hPa Calm     76 % 0.0 in /  0 mm
01:17 24.2 °F /  -4.3 °C 19.9 °F /  -6.7 °C 1015.8 in /  34395 hPa Calm     77 % 0.0 in /  0 mm
01:22 23.9 °F /  -4.5 °C 19.8 °F /  -6.8 °C 1015.8 in /  34395 hPa Calm     78 % 0.0 in /  0 mm
01:32 23.6 °F /  -4.7 °C 19.7 °F /  -6.8 °C 1015.8 in /  34395 hPa Calm     79 % 0.0 in /  0 mm
01:42 23.4 °F /  -4.8 °C 19.8 °F /  -6.8 °C 1015.8 in /  34395 hPa Calm     80 % 0.0 in /  0 mm
01:52 23.3 °F /  -4.8 °C 19.7 °F /  -6.8 °C 1015.8 in /  34395 hPa Calm     80 % 0.0 in /  0 mm
02:02 23.1 °F /  -4.9 °C 19.5 °F /  -6.9 °C 1015.8 in /  34395 hPa Calm     80 % 0.0 in /  0 mm
02:07 22.8 °F /  -5.1 °C 19.4 °F /  -7 °C 1015.8 in /  34395 hPa Calm     81 % 0.0 in /  0 mm
02:12 22.8 °F /  -5.1 °C 19.8 °F /  -6.8 °C 1015.8 in /  34395 hPa Calm     83 % 0.0 in /  0 mm
02:17 22.8 °F /  -5.1 °C 19.8 °F /  -6.8 °C 1015.8 in /  34395 hPa Calm     83 % 0.0 in /  0 mm
02:22 22.7 °F /  -5.2 °C 19.7 °F /  -6.8 °C 1015.8 in /  34395 hPa Calm     83 % 0.0 in /  0 mm
02:27 22.7 °F /  -5.2 °C 19.7 °F /  -6.8 °C 1015.8 in /  34395 hPa Calm     83 % 0.0 in /  0 mm
02:32 22.7 °F /  -5.2 °C 19.7 °F /  -6.8 °C 1015.8 in /  34395 hPa Calm     83 % 0.0 in /  0 mm
02:37 22.7 °F /  -5.2 °C 19.7 °F /  -6.8 °C 1015.8 in /  34395 hPa Calm     83 % 0.0 in /  0 mm
02:42 22.7 °F /  -5.2 °C 19.7 °F /  -6.8 °C 1015.8 in /  34395 hPa Calm     83 % 0.0 in /  0 mm
02:47 22.7 °F /  -5.2 °C 19.7 °F /  -6.8 °C 1015.8 in /  34395 hPa Calm     83 % 0.0 in /  0 mm
02:52 22.7 °F /  -5.2 °C 19.5 °F /  -6.9 °C 1015.8 in /  34395 hPa Calm     82 % 0.0 in /  0 mm
03:02 22.4 °F /  -5.3 °C 19.4 °F /  -7 °C 1015.8 in /  34395 hPa Calm     83 % 0.0 in /  0 mm
03:12 22.1 °F /  -5.5 °C 19.3 °F /  -7.1 °C 1015.8 in /  34395 hPa Calm     84 % 0.0 in /  0 mm
03:17 22.0 °F /  -5.6 °C 19.4 °F /  -7 °C 1015.5 in /  34384.8 hPa Calm     85 % 0.0 in /  0 mm
03:22 21.9 °F /  -5.6 °C 19.3 °F /  -7.1 °C 1015.5 in /  34384.8 hPa Calm     85 % 0.0 in /  0 mm
03:32 21.6 °F /  -5.8 °C 19.2 °F /  -7.1 °C 1015.5 in /  34384.8 hPa Calm     86 % 0.0 in /  0 mm
03:42 21.4 °F /  -5.9 °C 19.0 °F /  -7.2 °C 1015.5 in /  34384.8 hPa Calm     86 % 0.0 in /  0 mm
03:47 21.3 °F /  -5.9 °C 18.9 °F /  -7.3 °C 1015.5 in /  34384.8 hPa Calm     86 % 0.0 in /  0 mm
03:52 21.2 °F /  -6 °C 18.8 °F /  -7.3 °C 1015.5 in /  34384.8 hPa Calm     86 % 0.0 in /  0 mm
03:57 21.1 °F /  -6.1 °C 18.9 °F /  -7.3 °C 1015.5 in /  34384.8 hPa Calm     87 % 0.0 in /  0 mm
04:02 21.1 °F /  -6.1 °C 18.7 °F /  -7.4 °C 1015.5 in /  34384.8 hPa Calm     86 % 0.0 in /  0 mm
04:12 21.2 °F /  -6 °C 18.6 °F /  -7.4 °C 1015.5 in /  34384.8 hPa Calm     85 % 0.0 in /  0 mm
04:17 21.3 °F /  -5.9 °C 18.5 °F /  -7.5 °C 1015.5 in /  34384.8 hPa Calm     84 % 0.0 in /  0 mm
04:22 21.3 °F /  -5.9 °C 18.5 °F /  -7.5 °C 1015.5 in /  34384.8 hPa Calm     84 % 0.0 in /  0 mm
04:32 21.1 °F /  -6.1 °C 18.3 °F /  -7.6 °C 1015.5 in /  34384.8 hPa Calm     84 % 0.0 in /  0 mm
04:42 20.8 °F /  -6.2 °C 18.2 °F /  -7.7 °C 1015.5 in /  34384.8 hPa Calm     85 % 0.0 in /  0 mm
04:47 20.7 °F /  -6.3 °C 18.1 °F /  -7.7 °C 1015.5 in /  34384.8 hPa Calm     85 % 0.0 in /  0 mm
04:52 20.5 °F /  -6.4 °C 17.9 °F /  -7.8 °C 1015.5 in /  34384.8 hPa Calm     85 % 0.0 in /  0 mm
05:02 20.3 °F /  -6.5 °C 17.7 °F /  -7.9 °C 1015.5 in /  34384.8 hPa Calm     85 % 0.0 in /  0 mm
05:12 20.0 °F /  -6.7 °C 17.8 °F /  -7.9 °C 1015.5 in /  34384.8 hPa Calm     87 % 0.0 in /  0 mm
05:17 19.8 °F /  -6.8 °C 17.8 °F /  -7.9 °C 1015.1 in /  34371.3 hPa Calm     88 % 0.0 in /  0 mm
05:22 19.7 °F /  -6.8 °C 17.7 °F /  -7.9 °C 1015.5 in /  34384.8 hPa Calm     88 % 0.0 in /  0 mm
05:32 19.5 °F /  -6.9 °C 17.5 °F /  -8.1 °C 1015.5 in /  34384.8 hPa Calm     88 % 0.0 in /  0 mm
05:42 19.3 °F /  -7.1 °C 17.3 °F /  -8.2 °C 1015.5 in /  34384.8 hPa Calm     88 % 0.0 in /  0 mm
05:52 19.1 °F /  -7.2 °C 17.2 °F /  -8.2 °C 1015.5 in /  34384.8 hPa Calm     89 % 0.0 in /  0 mm
06:02 19.1 °F /  -7.2 °C 17.2 °F /  -8.2 °C 1015.5 in /  34384.8 hPa Calm     89 % 0.0 in /  0 mm
06:12 19.2 °F /  -7.1 °C 17.3 °F /  -8.2 °C 1015.8 in /  34395 hPa SSW 1.6 mph /  2.6 km/h   89 % 0.0 in /  0 mm
06:17 19.4 °F /  -7 °C 17.5 °F /  -8.1 °C 1015.8 in /  34395 hPa Calm   3.2 mph /  5.1 km/h 89 % 0.0 in /  0 mm
06:22 19.2 °F /  -7.1 °C 17.2 °F /  -8.2 °C 1015.8 in /  34395 hPa Calm   3.2 mph /  5.1 km/h 88 % 0.0 in /  0 mm
06:32 19.6 °F /  -6.9 °C 17.7 °F /  -7.9 °C 1015.5 in /  34384.8 hPa Calm   3.2 mph /  5.1 km/h 89 % 0.0 in /  0 mm
06:42 19.8 °F /  -6.8 °C 17.8 °F /  -7.9 °C 1015.8 in /  34395 hPa Calm   4.8 mph /  7.7 km/h 88 % 0.0 in /  0 mm
06:47 19.9 °F /  -6.7 °C 17.7 °F /  -7.9 °C 1015.8 in /  34395 hPa SSE 1.6 mph /  2.6 km/h 1.6 mph /  2.6 km/h 87 % 0.0 in /  0 mm
06:52 20.0 °F /  -6.7 °C 17.8 °F /  -7.9 °C 1015.8 in /  34395 hPa Calm   1.6 mph /  2.6 km/h 87 % 0.0 in /  0 mm
07:02 20.4 °F /  -6.4 °C 18.0 °F /  -7.8 °C 1015.8 in /  34395 hPa Calm   1.6 mph /  2.6 km/h 86 % 0.0 in /  0 mm
07:12 20.8 °F /  -6.2 °C 18.0 °F /  -7.8 °C 1015.8 in /  34395 hPa Calm   1.6 mph /  2.6 km/h 84 % 0.0 in /  0 mm
07:17 21.1 °F /  -6.1 °C 18.3 °F /  -7.6 °C 1015.8 in /  34395 hPa Calm     84 % 0.0 in /  0 mm
07:22 21.4 °F /  -5.9 °C 18.4 °F /  -7.6 °C 1015.8 in /  34395 hPa Calm     83 % 0.0 in /  0 mm
07:32 21.8 °F /  -5.7 °C 18.8 °F /  -7.3 °C 1015.8 in /  34395 hPa SW 1.6 mph /  2.6 km/h   83 % 0.0 in /  0 mm
07:42 21.9 °F /  -5.6 °C 18.5 °F /  -7.5 °C 1015.8 in /  34395 hPa SSW 1.6 mph /  2.6 km/h 1.6 mph /  2.6 km/h 81 % 0.0 in /  0 mm
07:47 21.9 °F /  -5.6 °C 18.7 °F /  -7.4 °C 1016.1 in /  34405.1 hPa SSW 1.6 mph /  2.6 km/h 1.6 mph /  2.6 km/h 82 % 0.0 in /  0 mm
07:52 21.9 °F /  -5.6 °C 18.5 °F /  -7.5 °C 1016.1 in /  34405.1 hPa Calm   1.6 mph /  2.6 km/h 81 % 0.0 in /  0 mm
08:02 22.3 °F /  -5.4 °C 18.7 °F /  -7.4 °C 1016.1 in /  34405.1 hPa Calm   4.8 mph /  7.7 km/h 80 % 0.0 in /  0 mm
08:07 22.4 °F /  -5.3 °C 18.8 °F /  -7.3 °C 1016.1 in /  34405.1 hPa SSW 1.6 mph /  2.6 km/h 4.8 mph /  7.7 km/h 80 % 0.0 in /  0 mm
08:12 22.7 °F /  -5.2 °C 19.1 °F /  -7.2 °C 1016.1 in /  34405.1 hPa Calm   4.8 mph /  7.7 km/h 80 % 0.0 in /  0 mm
08:17 22.8 °F /  -5.1 °C 18.8 °F /  -7.3 °C 1016.1 in /  34405.1 hPa SW 8.0 mph /  12.9 km/h 8.0 mph /  12.9 km/h 78 % 0.0 in /  0 mm
08:22 22.9 °F /  -5.1 °C 18.9 °F /  -7.3 °C 1016.1 in /  34405.1 hPa SSW 6.4 mph /  10.3 km/h 6.4 mph /  10.3 km/h 78 % 0.0 in /  0 mm
08:32 23.3 °F /  -4.8 °C 19.2 °F /  -7.1 °C 1016.1 in /  34405.1 hPa SSW 4.8 mph /  7.7 km/h 8.0 mph /  12.9 km/h 78 % 0.0 in /  0 mm
08:42 23.8 °F /  -4.6 °C 19.3 °F /  -7.1 °C 1016.5 in /  34418.7 hPa SSW 1.6 mph /  2.6 km/h 8.0 mph /  12.9 km/h 76 % 0.0 in /  0 mm
08:47 24.1 °F /  -4.4 °C 19.0 °F /  -7.2 °C 1016.5 in /  34418.7 hPa SW 12.9 mph /  20.8 km/h 12.9 mph /  20.8 km/h 73 % 0.0 in /  0 mm
08:52 24.3 °F /  -4.3 °C 18.9 °F /  -7.3 °C 1016.5 in /  34418.7 hPa South 6.4 mph /  10.3 km/h 11.3 mph /  18.2 km/h 72 % 0.0 in /  0 mm
09:02 24.8 °F /  -4 °C 18.5 °F /  -7.5 °C 1016.5 in /  34418.7 hPa South 6.4 mph /  10.3 km/h 16.1 mph /  25.9 km/h 68 % 0.0 in /  0 mm
09:07 25.0 °F /  -3.9 °C 18.0 °F /  -7.8 °C 1016.5 in /  34418.7 hPa SW 3.2 mph /  5.1 km/h 14.5 mph /  23.3 km/h 65 % 0.0 in /  0 mm
09:12 25.4 °F /  -3.7 °C 18.3 °F /  -7.6 °C 1016.5 in /  34418.7 hPa SW 3.2 mph /  5.1 km/h 14.5 mph /  23.3 km/h 65 % 0.0 in /  0 mm
09:17 25.6 °F /  -3.6 °C 18.5 °F /  -7.5 °C 1016.5 in /  34418.7 hPa SW 4.8 mph /  7.7 km/h 9.7 mph /  15.6 km/h 65 % 0.0 in /  0 mm
09:22 25.7 °F /  -3.5 °C 17.9 °F /  -7.8 °C 1016.5 in /  34418.7 hPa WSW 4.8 mph /  7.7 km/h 9.7 mph /  15.6 km/h 62 % 0.0 in /  0 mm
09:32 25.9 °F /  -3.4 °C 17.8 °F /  -7.9 °C 1016.8 in /  34428.8 hPa SW 8.0 mph /  12.9 km/h 14.5 mph /  23.3 km/h 61 % 0.0 in /  0 mm
09:42 26.3 °F /  -3.2 °C 17.9 °F /  -7.8 °C 1016.5 in /  34418.7 hPa SSW 6.4 mph /  10.3 km/h 16.1 mph /  25.9 km/h 60 % 0.0 in /  0 mm
09:52 26.6 °F /  -3 °C 17.1 °F /  -8.3 °C 1016.8 in /  34428.8 hPa West 12.9 mph /  20.8 km/h 14.5 mph /  23.3 km/h 56 % 0.0 in /  0 mm
10:02 26.8 °F /  -2.9 °C 17.6 °F /  -8 °C 1016.8 in /  34428.8 hPa SSW 1.6 mph /  2.6 km/h 17.7 mph /  28.5 km/h 57 % 0.0 in /  0 mm
10:12 27.3 °F /  -2.6 °C 17.5 °F /  -8.1 °C 1016.8 in /  34428.8 hPa WSW 9.7 mph /  15.6 km/h 17.7 mph /  28.5 km/h 55 % 0.0 in /  0 mm
10:17 27.5 °F /  -2.5 °C 17.7 °F /  -7.9 °C 1016.8 in /  34428.8 hPa South 6.4 mph /  10.3 km/h 14.5 mph /  23.3 km/h 55 % 0.0 in /  0 mm
10:22 27.6 °F /  -2.4 °C 17.2 °F /  -8.2 °C 1016.8 in /  34428.8 hPa SW 8.0 mph /  12.9 km/h 14.5 mph /  23.3 km/h 53 % 0.0 in /  0 mm
10:27 27.7 °F /  -2.4 °C 17.8 °F /  -7.9 °C 1016.8 in /  34428.8 hPa SW 11.3 mph /  18.2 km/h 14.5 mph /  23.3 km/h 55 % 0.0 in /  0 mm
10:32 27.7 °F /  -2.4 °C 17.2 °F /  -8.2 °C 1016.8 in /  34428.8 hPa SW 8.0 mph /  12.9 km/h 14.5 mph /  23.3 km/h 53 % 0.0 in /  0 mm
10:42 27.8 °F /  -2.3 °C 16.4 °F /  -8.7 °C 1016.8 in /  34428.8 hPa WSW 14.5 mph /  23.3 km/h 16.1 mph /  25.9 km/h 50 % 0.0 in /  0 mm
10:47 27.9 °F /  -2.3 °C 16.2 °F /  -8.8 °C 1016.8 in /  34428.8 hPa SW 16.1 mph /  25.9 km/h 17.7 mph /  28.5 km/h 49 % 0.0 in /  0 mm
10:52 27.9 °F /  -2.3 °C 16.2 °F /  -8.8 °C 1016.8 in /  34428.8 hPa West 6.4 mph /  10.3 km/h 17.7 mph /  28.5 km/h 49 % 0.0 in /  0 mm
11:02 28.2 °F /  -2.1 °C 16.5 °F /  -8.6 °C 1016.8 in /  34428.8 hPa West 4.8 mph /  7.7 km/h 22.5 mph /  36.2 km/h 49 % 0.0 in /  0 mm
11:12 28.2 °F /  -2.1 °C 16.5 °F /  -8.6 °C 1016.8 in /  34428.8 hPa SW 19.3 mph /  31.1 km/h 22.5 mph /  36.2 km/h 49 % 0.0 in /  0 mm
11:17 28.3 °F /  -2.1 °C 15.6 °F /  -9.1 °C 1016.8 in /  34428.8 hPa WSW 9.7 mph /  15.6 km/h 22.5 mph /  36.2 km/h 46 % 0.0 in /  0 mm
11:22 28.5 °F /  -1.9 °C 15.8 °F /  -9 °C 1016.8 in /  34428.8 hPa West 11.3 mph /  18.2 km/h 22.5 mph /  36.2 km/h 46 % 0.0 in /  0 mm
11:32 28.8 °F /  -1.8 °C 16.7 °F /  -8.5 °C 1016.8 in /  34428.8 hPa SSW 4.8 mph /  7.7 km/h 22.5 mph /  36.2 km/h 48 % 0.0 in /  0 mm
11:42 29.1 °F /  -1.6 °C 16.0 °F /  -8.9 °C 1016.8 in /  34428.8 hPa SW 9.7 mph /  15.6 km/h 22.5 mph /  36.2 km/h 45 % 0.0 in /  0 mm
11:47 29.4 °F /  -1.4 °C 16.6 °F /  -8.6 °C 1016.8 in /  34428.8 hPa WSW 8.0 mph /  12.9 km/h 19.3 mph /  31.1 km/h 46 % 0.0 in /  0 mm
11:52 29.7 °F /  -1.3 °C 15.8 °F /  -9 °C 1016.8 in /  34428.8 hPa SW 6.4 mph /  10.3 km/h 19.3 mph /  31.1 km/h 43 % 0.0 in /  0 mm
12:02 29.8 °F /  -1.2 °C 15.5 °F /  -9.2 °C 1016.8 in /  34428.8 hPa SSW 6.4 mph /  10.3 km/h 19.3 mph /  31.1 km/h 42 % 0.0 in /  0 mm
12:12 30.2 °F /  -1 °C 14.3 °F /  -9.8 °C 1016.8 in /  34428.8 hPa West 9.7 mph /  15.6 km/h 22.5 mph /  36.2 km/h 38 % 0.0 in /  0 mm
12:17 30.3 °F /  -0.9 °C 14.8 °F /  -9.6 °C 1016.8 in /  34428.8 hPa SW 8.0 mph /  12.9 km/h 20.9 mph /  33.6 km/h 39 % 0.0 in /  0 mm
12:27 30.6 °F /  -0.8 °C 13.8 °F /  -10.1 °C 1016.8 in /  34428.8 hPa SW 12.9 mph /  20.8 km/h 22.5 mph /  36.2 km/h 36 % 0.0 in /  0 mm
12:32 30.7 °F /  -0.7 °C 13.0 °F /  -10.6 °C 1016.8 in /  34428.8 hPa WSW 14.5 mph /  23.3 km/h 22.5 mph /  36.2 km/h 34 % 0.0 in /  0 mm
12:42 30.9 °F /  -0.6 °C 11.8 °F /  -11.2 °C 1016.5 in /  34418.7 hPa SW 6.4 mph /  10.3 km/h 24.1 mph /  38.8 km/h 31 % 0.0 in /  0 mm
12:47 31.1 °F /  -0.5 °C 11.5 °F /  -11.4 °C 1016.5 in /  34418.7 hPa WSW 20.9 mph /  33.6 km/h 24.1 mph /  38.8 km/h 30 % 0.0 in /  0 mm
12:52 31.2 °F /  -0.4 °C 12.1 °F /  -11.1 °C 1016.5 in /  34418.7 hPa SW 17.7 mph /  28.5 km/h 24.1 mph /  38.8 km/h 31 % 0.0 in /  0 mm
13:02 31.1 °F /  -0.5 °C 12.5 °F /  -10.8 °C 1016.5 in /  34418.7 hPa SW 12.9 mph /  20.8 km/h 25.7 mph /  41.4 km/h 32 % 0.0 in /  0 mm
13:12 31.3 °F /  -0.4 °C 13.6 °F /  -10.2 °C 1016.5 in /  34418.7 hPa West 14.5 mph /  23.3 km/h 27.4 mph /  44.1 km/h 34 % 0.0 in /  0 mm
13:17 31.4 °F /  -0.3 °C 12.7 °F /  -10.7 °C 1016.5 in /  34418.7 hPa West 11.3 mph /  18.2 km/h 24.1 mph /  38.8 km/h 32 % 0.0 in /  0 mm
13:22 31.6 °F /  -0.2 °C 12.4 °F /  -10.9 °C 1016.5 in /  34418.7 hPa WSW 6.4 mph /  10.3 km/h 24.1 mph /  38.8 km/h 31 % 0.0 in /  0 mm
13:32 31.6 °F /  -0.2 °C 11.9 °F /  -11.2 °C 1016.5 in /  34418.7 hPa SW 9.7 mph /  15.6 km/h 22.5 mph /  36.2 km/h 30 % 0.0 in /  0 mm
13:37 31.8 °F /  -0.1 °C 12.1 °F /  -11.1 °C 1016.5 in /  34418.7 hPa West 14.5 mph /  23.3 km/h 25.7 mph /  41.4 km/h 30 % 0.0 in /  0 mm
13:42 31.9 °F /  -0.1 °C 12.7 °F /  -10.7 °C 1016.5 in /  34418.7 hPa SW 9.7 mph /  15.6 km/h 25.7 mph /  41.4 km/h 31 % 0.0 in /  0 mm
13:47 32.1 °F /  0.1 °C 11.8 °F /  -11.2 °C 1016.1 in /  34405.1 hPa West 9.7 mph /  15.6 km/h 27.4 mph /  44.1 km/h 29 % 0.0 in /  0 mm
13:52 32.2 °F /  0.1 °C 11.4 °F /  -11.4 °C 1016.1 in /  34405.1 hPa West 16.1 mph /  25.9 km/h 27.4 mph /  44.1 km/h 28 % 0.0 in /  0 mm
13:57 32.0 °F /  0 °C 11.2 °F /  -11.6 °C 1016.5 in /  34418.7 hPa SW 6.4 mph /  10.3 km/h 27.4 mph /  44.1 km/h 28 % 0.0 in /  0 mm
14:02 32.0 °F /  0 °C 10.7 °F /  -11.8 °C 1016.1 in /  34405.1 hPa West 19.3 mph /  31.1 km/h 27.4 mph /  44.1 km/h 27 % 0.0 in /  0 mm
14:07 32.1 °F /  0.1 °C 12.3 °F /  -10.9 °C 1016.1 in /  34405.1 hPa WSW 17.7 mph /  28.5 km/h 27.4 mph /  44.1 km/h 30 % 0.0 in /  0 mm
14:12 32.2 °F /  0.1 °C 10.8 °F /  -11.8 °C 1016.1 in /  34405.1 hPa SSW 12.9 mph /  20.8 km/h 27.4 mph /  44.1 km/h 27 % 0.0 in /  0 mm
14:17 32.4 °F /  0.2 °C 12.1 °F /  -11.1 °C 1016.1 in /  34405.1 hPa WSW 14.5 mph /  23.3 km/h 24.1 mph /  38.8 km/h 29 % 0.0 in /  0 mm
14:22 32.5 °F /  0.3 °C 11.6 °F /  -11.3 °C 1016.1 in /  34405.1 hPa WSW 12.9 mph /  20.8 km/h 24.1 mph /  38.8 km/h 28 % 0.0 in /  0 mm
14:32 32.7 °F /  0.4 °C 11.3 °F /  -11.5 °C 1016.1 in /  34405.1 hPa SW 19.3 mph /  31.1 km/h 25.7 mph /  41.4 km/h 27 % 0.0 in /  0 mm
14:37 32.8 °F /  0.4 °C 10.2 °F /  -12.1 °C 1016.1 in /  34405.1 hPa WNW 11.3 mph /  18.2 km/h 22.5 mph /  36.2 km/h 25 % 0.0 in /  0 mm
14:42 32.9 °F /  0.5 °C 11.4 °F /  -11.4 °C 1016.1 in /  34405.1 hPa WSW 11.3 mph /  18.2 km/h 22.5 mph /  36.2 km/h 27 % 0.0 in /  0 mm
14:47 33.1 °F /  0.6 °C 11.0 °F /  -11.7 °C 1016.1 in /  34405.1 hPa WSW 14.5 mph /  23.3 km/h 24.1 mph /  38.8 km/h 26 % 0.0 in /  0 mm
14:52 33.2 °F /  0.7 °C 11.1 °F /  -11.6 °C 1016.1 in /  34405.1 hPa WNW 11.3 mph /  18.2 km/h 24.1 mph /  38.8 km/h 26 % 0.0 in /  0 mm
15:02 33.4 °F /  0.8 °C 11.3 °F /  -11.5 °C 1016.1 in /  34405.1 hPa West 9.7 mph /  15.6 km/h 24.1 mph /  38.8 km/h 26 % 0.0 in /  0 mm
15:12 33.6 °F /  0.9 °C 10.9 °F /  -11.7 °C 1016.1 in /  34405.1 hPa WSW 6.4 mph /  10.3 km/h 24.1 mph /  38.8 km/h 25 % 0.0 in /  0 mm
15:17 33.7 °F /  0.9 °C 10.3 °F /  -12.1 °C 1016.1 in /  34405.1 hPa West 12.9 mph /  20.8 km/h 24.1 mph /  38.8 km/h 24 % 0.0 in /  0 mm
15:22 33.8 °F /  1 °C 10.4 °F /  -12 °C 1015.8 in /  34395 hPa West 11.3 mph /  18.2 km/h 24.1 mph /  38.8 km/h 24 % 0.0 in /  0 mm
15:27 33.8 °F /  1 °C 9.1 °F /  -12.7 °C 1016.1 in /  34405.1 hPa SW 12.9 mph /  20.8 km/h 27.4 mph /  44.1 km/h 22 % 0.0 in /  0 mm
15:32 33.8 °F /  1 °C 10.4 °F /  -12 °C 1016.1 in /  34405.1 hPa WSW 8.0 mph /  12.9 km/h 27.4 mph /  44.1 km/h 24 % 0.0 in /  0 mm
15:37 33.7 °F /  0.9 °C 10.3 °F /  -12.1 °C 1016.1 in /  34405.1 hPa WSW 9.7 mph /  15.6 km/h 27.4 mph /  44.1 km/h 24 % 0.0 in /  0 mm
15:42 33.7 °F /  0.9 °C 10.9 °F /  -11.7 °C 1015.8 in /  34395 hPa SW 9.7 mph /  15.6 km/h 27.4 mph /  44.1 km/h 25 % 0.0 in /  0 mm
15:47 33.8 °F /  1 °C 10.4 °F /  -12 °C 1015.8 in /  34395 hPa West 14.5 mph /  23.3 km/h 25.7 mph /  41.4 km/h 24 % 0.0 in /  0 mm
15:52 33.7 °F /  0.9 °C 10.9 °F /  -11.7 °C 1015.8 in /  34395 hPa WSW 9.7 mph /  15.6 km/h 25.7 mph /  41.4 km/h 25 % 0.0 in /  0 mm
15:57 33.7 °F /  0.9 °C 10.9 °F /  -11.7 °C 1015.8 in /  34395 hPa West 9.7 mph /  15.6 km/h 22.5 mph /  36.2 km/h 25 % 0.0 in /  0 mm
16:02 33.6 °F /  0.9 °C 10.9 °F /  -11.7 °C 1015.8 in /  34395 hPa WSW 12.9 mph /  20.8 km/h 22.5 mph /  36.2 km/h 25 % 0.0 in /  0 mm
16:12 33.8 °F /  1 °C 12.2 °F /  -11 °C 1015.8 in /  34395 hPa West 12.9 mph /  20.8 km/h 22.5 mph /  36.2 km/h 27 % 0.0 in /  0 mm
16:17 34.0 °F /  1.1 °C 12.4 °F /  -10.9 °C 1015.8 in /  34395 hPa WSW 20.9 mph /  33.6 km/h 20.9 mph /  33.6 km/h 27 % 0.0 in /  0 mm
16:22 33.7 °F /  0.9 °C 12.1 °F /  -11.1 °C 1015.8 in /  34395 hPa West 17.7 mph /  28.5 km/h 20.9 mph /  33.6 km/h 27 % 0.0 in /  0 mm
16:32 34.1 °F /  1.2 °C 12.4 °F /  -10.9 °C 1015.5 in /  34384.8 hPa West 16.1 mph /  25.9 km/h 20.9 mph /  33.6 km/h 27 % 0.0 in /  0 mm
16:42 34.0 °F /  1.1 °C 12.4 °F /  -10.9 °C 1015.5 in /  34384.8 hPa WSW 9.7 mph /  15.6 km/h 19.3 mph /  31.1 km/h 27 % 0.0 in /  0 mm
16:52 34.1 °F /  1.2 °C 12.4 °F /  -10.9 °C 1015.5 in /  34384.8 hPa SW 12.9 mph /  20.8 km/h 17.7 mph /  28.5 km/h 27 % 0.0 in /  0 mm
16:57 33.8 °F /  1 °C 12.7 °F /  -10.7 °C 1015.5 in /  34384.8 hPa West 8.0 mph /  12.9 km/h 22.5 mph /  36.2 km/h 28 % 0.0 in /  0 mm
17:02 34.0 °F /  1.1 °C 12.4 °F /  -10.9 °C 1015.5 in /  34384.8 hPa WSW 6.4 mph /  10.3 km/h 22.5 mph /  36.2 km/h 27 % 0.0 in /  0 mm
17:07 34.0 °F /  1.1 °C 12.4 °F /  -10.9 °C 1015.5 in /  34384.8 hPa West 16.1 mph /  25.9 km/h 22.5 mph /  36.2 km/h 27 % 0.0 in /  0 mm
17:12 33.8 °F /  1 °C 12.7 °F /  -10.7 °C 1015.5 in /  34384.8 hPa WNW 6.4 mph /  10.3 km/h 22.5 mph /  36.2 km/h 28 % 0.0 in /  0 mm
17:17 33.9 °F /  1.1 °C 13.4 °F /  -10.3 °C 1015.5 in /  34384.8 hPa WNW 9.7 mph /  15.6 km/h 20.9 mph /  33.6 km/h 29 % 0.0 in /  0 mm
17:27 33.9 °F /  1.1 °C 12.3 °F /  -10.9 °C 1015.5 in /  34384.8 hPa West 11.3 mph /  18.2 km/h 22.5 mph /  36.2 km/h 27 % 0.0 in /  0 mm
17:32 33.9 °F /  1.1 °C 12.8 °F /  -10.7 °C 1015.5 in /  34384.8 hPa WSW 14.5 mph /  23.3 km/h 22.5 mph /  36.2 km/h 28 % 0.0 in /  0 mm
17:42 33.8 °F /  1 °C 12.7 °F /  -10.7 °C 1015.5 in /  34384.8 hPa West 9.7 mph /  15.6 km/h 24.1 mph /  38.8 km/h 28 % 0.0 in /  0 mm
17:47 33.8 °F /  1 °C 12.7 °F /  -10.7 °C 1015.5 in /  34384.8 hPa WSW 12.9 mph /  20.8 km/h 19.3 mph /  31.1 km/h 28 % 0.0 in /  0 mm
17:52 33.8 °F /  1 °C 12.7 °F /  -10.7 °C 1015.5 in /  34384.8 hPa West 14.5 mph /  23.3 km/h 19.3 mph /  31.1 km/h 28 % 0.0 in /  0 mm
17:57 33.8 °F /  1 °C 12.7 °F /  -10.7 °C 1015.5 in /  34384.8 hPa West 16.1 mph /  25.9 km/h 22.5 mph /  36.2 km/h 28 % 0.0 in /  0 mm
18:02 33.7 °F /  0.9 °C 12.7 °F /  -10.7 °C 1015.5 in /  34384.8 hPa West 16.1 mph /  25.9 km/h 22.5 mph /  36.2 km/h 28 % 0.0 in /  0 mm
18:12 33.6 °F /  0.9 °C 12.0 °F /  -11.1 °C 1015.5 in /  34384.8 hPa West 14.5 mph /  23.3 km/h 22.5 mph /  36.2 km/h 27 % 0.0 in /  0 mm
18:17 33.6 °F /  0.9 °C 13.1 °F /  -10.5 °C 1015.5 in /  34384.8 hPa West 8.0 mph /  12.9 km/h 22.5 mph /  36.2 km/h 29 % 0.0 in /  0 mm
18:22 33.6 °F /  0.9 °C 12.6 °F /  -10.8 °C 1015.5 in /  34384.8 hPa WSW 11.3 mph /  18.2 km/h 17.7 mph /  28.5 km/h 28 % 0.0 in /  0 mm
18:32 33.7 °F /  0.9 °C 12.7 °F /  -10.7 °C 1015.5 in /  34384.8 hPa West 4.8 mph /  7.7 km/h 17.7 mph /  28.5 km/h 28 % 0.0 in /  0 mm
18:42 33.6 °F /  0.9 °C 13.1 °F /  -10.5 °C 1015.5 in /  34384.8 hPa West 9.7 mph /  15.6 km/h 16.1 mph /  25.9 km/h 29 % 0.0 in /  0 mm
18:47 33.4 °F /  0.8 °C 12.9 °F /  -10.6 °C 1015.5 in /  34384.8 hPa West 11.3 mph /  18.2 km/h 19.3 mph /  31.1 km/h 29 % 0.0 in /  0 mm
18:52 33.4 °F /  0.8 °C 12.9 °F /  -10.6 °C 1015.5 in /  34384.8 hPa SW 6.4 mph /  10.3 km/h 19.3 mph /  31.1 km/h 29 % 0.0 in /  0 mm
18:57 33.4 °F /  0.8 °C 13.5 °F /  -10.3 °C 1015.5 in /  34384.8 hPa SW 6.4 mph /  10.3 km/h 19.3 mph /  31.1 km/h 30 % 0.0 in /  0 mm
19:02 33.4 °F /  0.8 °C 14.0 °F /  -10 °C 1015.5 in /  34384.8 hPa WSW 11.3 mph /  18.2 km/h 19.3 mph /  31.1 km/h 31 % 0.0 in /  0 mm
19:07 33.4 °F /  0.8 °C 13.5 °F /  -10.3 °C 1015.5 in /  34384.8 hPa SW 3.2 mph /  5.1 km/h 14.5 mph /  23.3 km/h 30 % 0.0 in /  0 mm
19:12 33.4 °F /  0.8 °C 14.0 °F /  -10 °C 1015.5 in /  34384.8 hPa SW 6.4 mph /  10.3 km/h 14.5 mph /  23.3 km/h 31 % 0.0 in /  0 mm
19:17 33.4 °F /  0.8 °C 14.0 °F /  -10 °C 1015.5 in /  34384.8 hPa West 3.2 mph /  5.1 km/h 14.5 mph /  23.3 km/h 31 % 0.0 in /  0 mm
19:22 33.4 °F /  0.8 °C 14.0 °F /  -10 °C 1015.5 in /  34384.8 hPa WNW 6.4 mph /  10.3 km/h 14.5 mph /  23.3 km/h 31 % 0.0 in /  0 mm
19:32 33.3 °F /  0.7 °C 13.9 °F /  -10.1 °C 1015.5 in /  34384.8 hPa SW 4.8 mph /  7.7 km/h 11.3 mph /  18.2 km/h 31 % 0.0 in /  0 mm
19:37 33.2 °F /  0.7 °C 14.3 °F /  -9.8 °C 1015.5 in /  34384.8 hPa West 4.8 mph /  7.7 km/h 9.7 mph /  15.6 km/h 32 % 0.0 in /  0 mm
19:42 33.3 °F /  0.7 °C 14.4 °F /  -9.8 °C 1015.5 in /  34384.8 hPa Calm   9.7 mph /  15.6 km/h 32 % 0.0 in /  0 mm
19:52 33.2 °F /  0.7 °C 14.8 °F /  -9.6 °C 1015.5 in /  34384.8 hPa West 3.2 mph /  5.1 km/h 9.7 mph /  15.6 km/h 33 % 0.0 in /  0 mm
19:57 33.2 °F /  0.7 °C 14.8 °F /  -9.6 °C 1015.5 in /  34384.8 hPa WSW 3.2 mph /  5.1 km/h 8.0 mph /  12.9 km/h 33 % 0.0 in /  0 mm
20:02 33.1 °F /  0.6 °C 14.7 °F /  -9.6 °C 1015.5 in /  34384.8 hPa Calm   8.0 mph /  12.9 km/h 33 % 0.0 in /  0 mm
20:12 33.1 °F /  0.6 °C 15.1 °F /  -9.4 °C 1015.5 in /  34384.8 hPa WSW 4.8 mph /  7.7 km/h 6.4 mph /  10.3 km/h 34 % 0.0 in /  0 mm
20:17 32.8 °F /  0.4 °C 14.9 °F /  -9.5 °C 1015.5 in /  34384.8 hPa Calm   6.4 mph /  10.3 km/h 34 % 0.0 in /  0 mm
20:22 32.7 °F /  0.4 °C 14.8 °F /  -9.6 °C 1015.5 in /  34384.8 hPa WSW 3.2 mph /  5.1 km/h 6.4 mph /  10.3 km/h 34 % 0.0 in /  0 mm
20:32 32.3 °F /  0.2 °C 14.9 °F /  -9.5 °C 1015.5 in /  34384.8 hPa Calm   8.0 mph /  12.9 km/h 35 % 0.0 in /  0 mm
20:37 32.2 °F /  0.1 °C 15.2 °F /  -9.3 °C 1015.5 in /  34384.8 hPa Calm   4.8 mph /  7.7 km/h 36 % 0.0 in /  0 mm
20:42 32.0 °F /  0 °C 16.3 °F /  -8.7 °C 1015.5 in /  34384.8 hPa Calm   4.8 mph /  7.7 km/h 39 % 0.0 in /  0 mm
20:52 31.4 °F /  -0.3 °C 16.6 °F /  -8.6 °C 1015.5 in /  34384.8 hPa Calm   1.6 mph /  2.6 km/h 41 % 0.0 in /  0 mm
20:57 31.0 °F /  -0.6 °C 16.6 °F /  -8.6 °C 1015.5 in /  34384.8 hPa Calm     42 % 0.0 in /  0 mm
21:02 30.7 °F /  -0.7 °C 16.7 °F /  -8.5 °C 1015.5 in /  34384.8 hPa Calm     43 % 0.0 in /  0 mm
21:12 30.1 °F /  -1.1 °C 17.5 °F /  -8.1 °C 1015.5 in /  34384.8 hPa Calm     47 % 0.0 in /  0 mm
21:17 29.3 °F /  -1.5 °C 16.8 °F /  -8.4 °C 1015.5 in /  34384.8 hPa Calm     47 % 0.0 in /  0 mm
21:22 28.8 °F /  -1.8 °C 16.4 °F /  -8.7 °C 1015.5 in /  34384.8 hPa Calm     47 % 0.0 in /  0 mm
21:32 28.3 °F /  -2.1 °C 17.2 °F /  -8.2 °C 1015.5 in /  34384.8 hPa West 1.6 mph /  2.6 km/h 1.6 mph /  2.6 km/h 51 % 0.0 in /  0 mm
21:42 27.7 °F /  -2.4 °C 16.9 °F /  -8.4 °C 1015.8 in /  34395 hPa Calm   3.2 mph /  5.1 km/h 52 % 0.0 in /  0 mm
21:52 27.1 °F /  -2.7 °C 16.7 °F /  -8.5 °C 1015.8 in /  34395 hPa Calm   3.2 mph /  5.1 km/h 53 % 0.0 in /  0 mm
21:57 26.9 °F /  -2.8 °C 16.8 °F /  -8.4 °C 1015.8 in /  34395 hPa Calm   1.6 mph /  2.6 km/h 54 % 0.0 in /  0 mm
22:02 26.6 °F /  -3 °C 16.8 °F /  -8.4 °C 1015.8 in /  34395 hPa Calm   1.6 mph /  2.6 km/h 55 % 0.0 in /  0 mm
22:12 26.3 °F /  -3.2 °C 17.1 °F /  -8.3 °C 1015.8 in /  34395 hPa Calm     57 % 0.0 in /  0 mm
22:17 26.0 °F /  -3.3 °C 17.1 °F /  -8.3 °C 1016.1 in /  34405.1 hPa Calm     58 % 0.0 in /  0 mm
22:22 25.8 °F /  -3.4 °C 17.2 °F /  -8.2 °C 1016.1 in /  34405.1 hPa WNW 1.6 mph /  2.6 km/h   59 % 0.0 in /  0 mm
22:32 25.4 °F /  -3.7 °C 17.1 °F /  -8.3 °C 1016.1 in /  34405.1 hPa Calm   1.6 mph /  2.6 km/h 60 % 0.0 in /  0 mm
22:47 24.9 °F /  -3.9 °C 16.3 °F /  -8.7 °C 1016.1 in /  34405.1 hPa Calm     59 % 0.0 in /  0 mm
22:52 24.9 °F /  -3.9 °C 16.6 °F /  -8.6 °C 1016.1 in /  34405.1 hPa Calm     60 % 0.0 in /  0 mm
23:02 24.7 °F /  -4.1 °C 16.4 °F /  -8.7 °C 1016.1 in /  34405.1 hPa Calm     60 % 0.0 in /  0 mm
23:12 24.4 °F /  -4.2 °C 16.4 °F /  -8.7 °C 1016.5 in /  34418.7 hPa Calm     61 % 0.0 in /  0 mm
23:17 24.3 °F /  -4.3 °C 16.3 °F /  -8.7 °C 1016.5 in /  34418.7 hPa Calm   1.6 mph /  2.6 km/h 61 % 0.0 in /  0 mm
23:22 24.2 °F /  -4.3 °C 16.2 °F /  -8.8 °C 1016.1 in /  34405.1 hPa Calm   1.6 mph /  2.6 km/h 61 % 0.0 in /  0 mm
23:32 24.1 °F /  -4.4 °C 16.4 °F /  -8.7 °C 1016.5 in /  34418.7 hPa Calm     62 % 0.0 in /  0 mm
23:42 23.8 °F /  -4.6 °C 16.1 °F /  -8.8 °C 1016.5 in /  34418.7 hPa Calm     62 % 0.0 in /  0 mm
23:47 23.8 °F /  -4.6 °C 15.8 °F /  -9 °C 1016.5 in /  34418.7 hPa Calm   1.6 mph /  2.6 km/h 61 % 0.0 in /  0 mm
23:52 23.7 °F /  -4.6 °C 16.0 °F /  -8.9 °C 1016.5 in /  34418.7 hPa SSW 3.2 mph /  5.1 km/h 3.2 mph /  5.1 km/h 62 % 0.0 in /  0 mm
23:57 23.6 °F /  -4.7 °C 16.1 °F /  -8.8 °C 1016.5 in /  34418.7 hPa South 1.6 mph /  2.6 km/h 3.2 mph /  5.1 km/h 63 % 0.0 in /  0 mm
Meteo18
Compliments of Weather Underground - 4 mb

Script developed by  Jim McMurry - jmcmurry@mwt.net Adapted for the template by  Wim van der Kuil - Leuven-Template.eu

You find our weather info also at:

European Weather Network

Weather Underground

Equipment we use:

Weather-station
Davis Vue

Weather-program
Meteobridge

Weather-server
Raspberry PI 2 B+

Provider
1 and 1

Davis Vue

Meteobridge

Raspberry PI 2 B+

1 and 1